Wind_Speed
63 63 62 61 60 58 57 56 56 55 55 55 56 56 58 61 63 65 66 68 69 71 72 74 74 75 75 75 74 74 74 74 74 74 74 74 74 74 74 75 75 75 75 75 75 75 74 74 74 75 74 74 73 72 72 72 72 72 72 73 74 76 78 78 77 75 74 74 73 73 72 71 71 71 71 72 71 71 71 71 72 72 72 72 71 70 69 68
63 62 62 61 60 58 57 57 56 56 55 55 55 55 56 58 60 63 65 67 68 69 71 72 74 75 76 76 76 76 76 75 75 75 75 76 76 76 75 76 76 76 76 76 76 76 76 76 76 76 76 76 75 74 74 73 73 73 74 74 76 77 78 78 77 76 74 74 74 73 73 72 72 71 71 72 71 71 71 70 70 71 71 70 69 68 68 68
62 62 61 60 59 58 57 57 57 57 57 56 56 56 56 56 57 60 63 65 67 68 69 70 72 73 75 76 77 77 78 78 78 77 78 78 78 78 77 77 77 77 77 77 77 77 77 78 78 78 78 77 76 76 75 75 74 74 75 76 77 78 78 78 78 77 75 75 75 74 73 73 72 72 72 71 71 71 70 70 70 71 70 69 68 67 67 68
62 61 60 59 59 58 58 58 58 58 58 57 57 57 56 56 57 58 60 62 65 67 69 70 71 72 73 74 75 76 77 78 78 79 79 80 80 80 80 79 79 79 79 79 79 79 79 79 79 79 79 78 78 77 76 76 75 76 77 77 78 78 78 78 78 77 76 75 75 75 74 74 73 72 72 72 72 72 71 71 72 72 70 68 67 66 67 67
62 61 60 59 58 58 58 59 59 59 59 59 58 58 58 58 58 58 59 60 62 65 67 69 70 71 72 73 73 74 75 75 76 78 79 79 80 80 80 80 80 80 80 80 80 80 80 80 80 80 79 79 78 77 76 76 76 77 78 78 79 79 79 79 78 78 76 75 75 75 74 74 73 73 73 73 73 72 72 73 73 72 71 69 67 66 66 66
62 61 60 59 59 59 59 59 59 59 60 60 59 59 59 59 59 59 59 60 62 63 65 66 68 70 71 72 72 73 73 73 74 76 76 77 78 78 79 79 79 79 79 79 79 79 79 80 80 79 79 78 78 77 77 76 77 78 79 79 79 80 80 79 78 77 75 75 75 74 74 74 73 73 73 73 73 72 72 73 72 72 70 68 67 66 66 65
62 61 60 59 59 59 60 60 60 60 60 60 59 59 59 59 59 60 60 61 62 63 65 65 66 68 69 71 72 72 72 72 73 74 74 74 75 76 77 77 77 77 77 77 78 78 79 79 79 78 78 78 77 77 77 77 77 79 79 79 79 79 80 78 77 77 76 75 74 74 74 73 72 72 73 72 72 72 72 72 71 70 69 67 66 65 64 62
62 61 60 60 60 60 60 60 60 60 59 59 58 58 58 58 59 59 60 61 61 63 65 66 66 67 68 69 70 71 71 71 72 72 72 73 73 74 75 75 76 76 76 76 76 77 78 78 78 78 77 77 77 77 76 77 77 78 78 78 78 79 79 78 77 77 76 75 74 73 73 72 71 72 72 72 72 72 71 71 70 69 68 67 65 63 62 61
63 62 61 60 60 60 60 59 59 58 58 57 56 56 56 57 57 58 58 59 61 62 64 65 66 67 67 68 69 69 70 70 71 71 72 72 72 73 74 74 75 74 74 74 75 76 76 77 77 77 77 77 77 76 76 76 76 77 77 77 77 77 78 77 76 76 75 74 73 73 72 71 70 70 71 71 71 71 70 70 69 69 68 66 65 63 62 61
64 63 62 62 61 60 59 58 58 57 56 55 54 54 54 54 55 55 55 56 57 59 61 63 65 66 67 68 69 68 69 69 70 70 71 71 72 72 73 73 73 73 73 73 74 75 75 75 76 76 76 76 76 76 75 75 76 77 76 76 76 76 76 76 76 75 74 73 72 72 71 70 68 69 70 70 70 70 69 69 68 67 66 65 64 63 62 61
65 64 63 62 61 60 59 58 57 56 54 53 52 51 51 51 51 51 51 52 53 54 56 58 61 63 65 67 68 68 69 69 69 70 70 71 71 71 71 71 72 72 73 73 74 74 74 75 75 75 76 76 76 75 75 75 75 76 76 76 75 75 75 75 75 74 72 72 71 70 70 69 67 68 69 68 68 68 67 66 66 65 64 64 63 62 61 60
66 65 65 63 62 61 59 58 56 55 53 52 50 49 48 48 47 48 48 49 49 50 52 54 57 60 62 64 66 67 69 69 69 69 69 70 70 71 71 72 72 73 73 73 73 74 74 74 75 75 75 75 75 74 74 74 75 75 75 75 74 73 73 73 73 72 71 71 70 69 68 67 67 67 66 65 65 64 64 63 63 62 61 61 61 60 59 58
66 66 66 65 63 62 60 58 56 54 53 51 49 47 47 46 45 45 46 47 49 50 50 51 54 56 59 60 62 64 66 67 68 68 68 69 70 70 71 71 72 72 72 72 72 73 73 74 74 74 74 74 74 73 73 73 73 73 73 73 73 72 72 71 71 71 70 69 68 66 65 65 65 64 63 62 61 60 60 59 59 58 58 58 58 58 57 56
67 67 67 66 65 64 62 59 56 54 52 50 48 47 46 45 44 44 44 45 47 48 49 49 51 53 56 57 57 60 63 64 66 66 67 68 68 69 69 69 70 70 70 70 71 71 72 72 73 73 73 73 72 72 72 72 72 71 71 71 70 70 70 69 68 68 67 66 64 62 61 62 63 61 59 58 56 56 56 56 55 55 55 56 56 57 55 55
68 68 68 67 67 65 63 60 57 54 52 50 48 47 46 45 45 44 42 42 43 44 44 45 47 49 52 53 53 56 59 61 62 64 65 66 66 66 66 66 67 68 68 67 68 69 69 70 71 71 71 71 71 70 70 70 69 68 68 68 68 67 66 65 64 64 63 62 60 58 57 58 60 58 56 55 53 53 53 53 53 53 53 55 55 55 53 54
69 69 69 68 68 67 65 62 58 54 52 51 50 48 47 46 46 44 42 41 40 40 40 42 43 44 47 49 49 52 55 57 59 60 61 63 64 64 64 64 65 66 65 65 66 67 67 68 68 69 69 69 69 68 67 67 66 66 65 65 64 63 62 61 60 60 59 59 57 56 54 56 59 57 54 54 52 51 52 53 53 53 53 54 54 52 52 53
71 70 69 69 68 67 66 63 59 55 52 52 52 50 49 47 46 46 44 41 40 39 39 39 40 41 43 44 45 47 49 51 54 56 57 58 60 60 61 62 63 63 63 64 64 65 66 66 67 67 67 67 67 66 66 65 65 64 63 62 60 59 58 58 58 57 57 57 56 55 53 54 57 56 54 53 51 50 51 52 53 53 53 54 53 51 51 53
71 71 70 70 69 68 67 64 61 57 54 54 54 52 50 49 47 47 46 44 42 40 39 40 40 40 41 42 43 43 44 46 49 51 52 53 54 55 57 58 59 60 61 61 62 63 63 64 65 65 65 65 65 65 64 64 63 61 60 58 57 57 56 56 56 55 55 55 55 54 53 53 56 55 53 52 51 50 51 52 53 53 53 54 52 51 52 53
72 71 71 70 69 68 67 65 63 59 56 55 56 54 52 50 49 48 49 48 46 44 42 42 41 41 41 41 41 40 41 43 45 47 48 49 50 52 53 54 56 57 58 59 60 61 61 62 62 63 64 65 64 63 63 62 61 59 58 57 56 56 56 56 56 55 55 54 53 53 52 52 54 54 52 51 51 51 52 53 54 54 53 53 52 51 52 54
72 71 71 70 69 68 67 65 64 62 59 58 58 56 53 52 50 49 51 51 50 48 46 45 44 44 44 42 41 41 42 42 44 46 47 47 48 50 51 53 54 56 57 58 59 59 59 60 62 64 66 65 64 63 63 62 61 59 58 57 56 56 57 57 56 56 55 52 53 53 50 50 52 52 51 50 49 51 53 54 54 53 52 52 52 51 52 55
74 73 72 71 69 68 67 65 64 62 61 61 60 58 56 53 52 51 52 53 52 50 49 48 48 48 47 44 43 44 44 44 46 48 48 48 49 50 52 53 55 56 57 57 57 58 58 59 63 66 66 64 63 63 63 63 62 61 59 58 58 59 60 60 58 57 55 52 53 52 50 50 52 51 50 48 48 51 54 54 53 52 52 51 51 51 52 54
75 74 73 72 71 69 68 66 64 63 62 63 62 60 58 56 54 53 54 54 53 51 50 50 50 51 48 47 47 46 47 49 50 50 50 51 51 52 54 55 56 57 58 58 58 59 59 60 65 67 65 64 63 63 63 63 62 62 61 61 61 63 63 61 59 57 55 52 53 53 50 50 52 51 49 48 48 50 54 53 52 51 51 51 51 51 51 54
74 74 73 73 72 71 70 68 66 64 63 64 63 62 60 58 57 56 55 56 53 50 50 50 51 51 49 49 50 49 50 53 54 54 53 54 55 55 55 57 58 58 59 60 61 62 62 63 66 66 65 64 64 63 62 62 61 61 61 61 64 66 64 62 60 57 54 52 53 53 49 51 54 52 50 49 48 51 53 53 52 52 51 51 51 50 50 52
72 72 72 72 72 71 70 69 67 65 64 64 64 63 61 60 60 59 57 57 54 50 50 51 51 52 51 51 51 51 52 55 57 57 56 57 58 58 58 59 59 60 61 63 63 63 64 66 67 66 65 64 63 63 62 61 60 59 58 59 62 64 63 61 60 57 54 53 54 52 48 51 54 52 51 49 49 52 52 52 52 52 51 51 50 48 49 51
69 69 69 69 69 69 69 68 67 66 65 64 64 64 63 62 62 61 59 59 57 53 52 52 53 54 54 53 53 53 54 56 60 60 58 59 60 60 61 61 60 62 63 64 63 63 64 66 67 66 65 64 62 62 61 60 59 58 58 58 59 59 59 58 57 56 55 54 53 51 49 52 54 52 50 50 50 51 51 51 51 50 50 49 46 45 47 49
68 67 67 66 66 66 66 66 66 66 65 65 65 64 64 63 63 62 61 62 60 56 55 55 55 56 56 56 55 56 56 57 60 60 59 61 62 62 62 62 62 64 64 63 62 61 63 65 64 63 62 61 60 60 60 59 58 57 58 57 55 55 55 55 54 53 54 53 51 50 49 51 53 50 49 48 49 50 50 50 48 47 46 45 43 43 44 45
68 68 67 65 64 65 65 65 65 65 65 64 64 63 64 64 63 63 62 63 62 59 58 58 58 57 57 57 58 58 58 59 61 61 60 61 63 63 63 63 64 65 63 61 59 59 61 61 59 58 57 57 58 59 59 57 56 57 57 55 54 54 54 53 52 50 51 50 48 47 46 47 48 47 46 46 47 48 48 47 45 44 43 41 40 40 42 43
70 70 69 68 67 66 66 65 64 63 64 63 62 62 62 63 62 62 63 63 62 60 59 59 59 59 58 58 59 59 59 60 60 60 60 61 64 64 64 64 65 63 59 56 55 56 56 55 54 54 53 55 57 57 56 55 55 56 55 53 53 53 53 52 50 48 48 46 45 45 43 42 44 44 44 43 44 46 45 43 42 41 40 38 38 38 40 41
71 71 71 71 70 68 66 65 64 64 64 64 64 63 63 63 63 62 62 62 61 60 60 60 61 60 59 59 59 59 59 59 59 60 60 61 64 65 64 64 62 58 53 51 52 53 53 52 52 51 52 54 56 55 54 54 54 53 52 51 51 51 51 50 48 46 44 42 44 45 41 39 40 41 42 40 42 44 42 40 39 38 37 37 37 38 39 40
69 70 71 72 71 69 68 67 66 65 65 65 65 64 64 63 63 62 62 62 61 60 60 61 61 61 60 59 59 58 58 58 59 59 61 62 64 65 64 61 57 52 50 49 50 51 51 51 51 50 52 54 54 53 52 52 51 49 49 49 49 48 47 46 45 43 41 40 44 45 39 35 34 38 41 40 39 41 39 37 37 36 36 36 36 38 39 38
63 65 68 71 71 71 70 69 69 68 67 66 64 63 62 62 62 61 62 62 61 60 60 61 61 60 59 59 58 58 58 58 59 60 62 62 63 63 61 56 52 50 48 47 49 50 49 49 49 50 51 51 50 49 49 48 47 46 46 45 45 44 43 42 40 39 37 39 43 42 36 31 30 35 41 39 37 38 37 35 36 35 35 35 36 38 38 37
57 60 63 67 69 71 72 72 72 70 68 66 64 62 62 61 61 62 62 63 62 61 60 60 60 59 59 59 58 58 58 59 60 62 62 62 61 59 56 52 49 48 46 46 48 47 44 44 45 45 46 46 46 45 45 45 45 44 43 41 39 38 37 36 35 34 35 37 39 37 32 28 28 34 41 39 36 36 36 35 35 35 35 35 36 38 38 37
54 56 59 61 64 67 69 71 72 71 69 67 64 63 62 61 62 62 62 61 61 60 60 60 60 59 59 59 59 59 59 60 61 62 62 60 57 53 51 50 48 46 44 44 45 43 40 40 40 41 42 43 42 42 42 43 42 41 38 35 33 32 32 33 33 32 33 35 35 33 28 26 27 33 40 39 35 34 35 35 35 36 35 35 36 37 37 36
53 54 56 58 60 62 64 67 69 69 68 66 64 62 60 59 59 58 58 58 58 59 59 59 59 58 58 58 59 59 59 60 61 61 59 56 52 49 48 48 46 44 42 42 41 39 37 37 38 39 40 40 40 40 40 39 38 36 34 32 30 31 32 33 32 31 32 33 32 29 26 25 28 34 40 39 35 34 35 35 36 36 35 35 36 37 36 35
52 53 53 55 56 58 60 62 64 65 64 63 61 59 57 56 55 54 55 56 56 56 56 57 56 55 56 57 58 59 59 59 60 58 55 51 48 47 46 46 44 43 41 39 38 37 35 35 35 36 37 38 38 38 37 35 35 34 32 30 31 33 33 31 29 29 31 31 29 28 26 28 31 35 39 38 34 33 34 35 36 36 35 36 36 37 36 35
50 50 51 52 53 54 55 57 59 60 59 58 57 56 55 54 53 53 54 54 55 55 55 55 55 54 56 57 59 59 58 57 57 54 50 47 46 45 45 44 43 41 40 39 38 36 34 33 33 34 36 36 36 36 34 33 33 32 31 31 33 32 29 27 27 28 30 29 29 29 28 30 32 35 37 36 33 32 34 35 36 36 35 36 37 37 36 35
47 47 47 48 49 50 50 52 55 56 57 56 55 54 53 52 52 53 53 54 56 56 56 56 56 56 56 57 58 58 57 54 52 50 47 44 44 44 44 43 40 39 39 38 36 35 34 34 33 33 35 36 35 35 34 33 32 32 31 33 32 28 26 27 28 28 29 29 29 29 30 31 32 34 36 35 32 32 33 35 36 36 36 36 37 37 36 35
43 43 43 44 44 45 46 47 50 53 55 55 54 53 52 52 52 53 54 55 56 56 56 56 56 56 56 56 56 55 54 52 49 47 45 43 42 43 43 41 38 37 37 36 35 34 33 34 34 34 35 35 35 35 34 32 32 32 32 32 29 26 27 28 29 29 29 29 29 29 30 31 32 33 34 34 33 32 34 35 36 36 36 36 36 36 36 36
39 39 39 39 39 40 41 42 44 47 50 51 52 51 51 51 52 53 54 55 56 56 56 55 54 54 54 54 52 51 51 50 47 45 44 43 42 42 42 40 37 36 35 35 34 33 33 34 35 35 35 35 35 35 34 32 31 32 32 30 28 28 29 29 29 29 29 28 29 29 30 31 31 32 34 34 33 33 35 35 35 35 35 35 36 36 37 38
35 34 34 34 34 35 37 39 41 42 44 45 47 48 50 51 52 53 54 54 54 54 54 53 53 53 53 52 49 49 50 49 47 44 44 43 42 41 41 39 36 36 35 35 34 33 33 34 36 37 36 36 35 34 33 32 32 32 31 29 29 29 30 30 29 29 29 29 29 29 30 31 32 33 34 34 34 33 34 34 34 34 34 35 37 38 40 41
32 30 29 28 28 30 34 37 38 39 40 42 44 46 49 50 51 52 53 53 53 52 52 52 52 51 50 49 49 49 49 48 47 45 44 43 42 41 40 38 37 36 35 34 33 33 34 34 36 38 37 37 36 34 34 34 33 33 31 30 30 30 30 29 29 29 29 29 29 29 30 30 32 34 34 33 32 32 32 32 33 34 36 37 37 38 40 41
30 28 27 25 26 28 32 34 36 37 39 42 44 46 48 49 49 50 51 51 51 51 50 50 50 49 49 49 50 49 48 47 46 46 44 43 41 40 39 38 37 37 36 34 33 34 34 35 37 38 38 37 36 34 34 35 34 33 32 31 31 31 30 29 30 30 29 28 28 29 29 30 32 35 34 32 31 30 30 31 34 35 36 36 35 35 37 37
31 29 28 28 29 31 33 35 36 38 40 42 44 45 46 47 49 50 50 50 49 49 49 48 48 49 49 51 50 49 47 46 45 45 45 43 41 40 38 38 38 38 37 35 34 35 35 36 37 39 39 37 35 34 34 35 34 33 32 32 32 32 31 30 30 30 29 29 29 29 30 30 33 35 35 33 31 30 30 32 34 35 34 32 32 33 33 33
34 33 32 33 33 34 35 36 38 39 40 42 43 45 46 48 48 49 48 47 47 48 48 48 49 50 51 52 51 49 47 46 45 45 45 44 42 39 38 39 40 40 40 38 37 36 36 37 38 41 40 37 34 33 34 35 35 34 34 34 34 33 32 32 31 30 29 29 30 30 31 31 33 35 36 34 32 31 31 33 34 34 33 32 33 33 33 32
36 36 36 36 36 36 37 38 39 40 41 43 44 45 46 46 45 45 45 45 46 47 48 49 50 51 51 52 51 49 47 46 45 44 44 44 42 40 41 43 43 43 42 41 40 38 37 37 39 42 42 38 34 34 36 37 37 36 35 35 35 34 33 33 33 31 30 30 30 31 32 32 33 35 35 34 33 33 33 35 36 36 35 35 36 37 35 32
37 38 38 38 37 38 39 40 40 41 42 43 43 43 42 42 42 43 44 45 47 48 49 50 51 51 50 49 49 48 47 46 45 44 45 45 43 43 45 45 43 44 45 43 42 40 37 37 39 42 43 39 36 36 37 38 38 37 36 36 36 35 34 34 33 31 31 31 31 31 32 32 33 35 36 35 35 35 36 38 39 39 39 40 41 40 35 30
31 34 36 36 37 38 38 38 37 38 38 38 38 38 39 40 41 43 44 46 48 49 50 50 50 49 49 48 47 47 47 46 45 45 45 46 45 46 48 46 45 48 47 44 43 41 38 37 38 41 43 40 37 38 39 39 38 37 37 37 37 36 35 34 33 32 32 32 31 31 32 33 35 37 37 37 38 38 39 41 42 43 44 45 45 41 36 32
25 26 28 30 31 32 31 32 33 34 34 35 36 37 38 39 41 43 45 47 48 48 48 47 47 46 47 47 48 48 48 47 46 46 46 47 47 48 49 49 49 50 47 42 41 40 38 38 39 40 42 41 39 39 40 40 39 39 38 38 38 37 36 35 34 32 32 32 32 32 33 34 36 38 38 38 40 41 43 45 46 47 50 49 47 43 39 38
22 23 24 25 26 27 28 30 31 31 33 34 35 36 38 39 42 43 44 45 46 46 45 45 45 45 46 47 48 48 49 48 48 47 47 47 48 49 51 52 51 51 48 44 42 42 41 40 40 41 42 42 40 40 41 41 41 40 39 39 39 38 37 36 35 33 33 33 33 32 33 35 37 38 39 41 43 44 46 48 48 52 54 50 47 44 42 42
23 23 24 25 25 26 28 29 30 31 32 33 35 37 39 40 41 42 42 43 44 44 44 44 44 44 45 46 46 46 47 47 47 47 47 48 48 50 52 54 54 54 51 46 44 44 44 43 42 42 43 43 41 41 42 42 42 41 40 40 40 39 38 37 35 34 33 33 34 34 35 36 38 39 41 42 44 47 49 50 52 56 56 51 46 45 44 45
24 25 25 25 25 27 27 28 29 30 31 33 35 38 39 39 40 40 41 42 42 42 41 40 40 40 41 42 42 42 43 43 44 45 45 46 47 49 52 56 57 55 50 46 46 47 47 46 44 43 44 43 43 42 43 44 44 43 42 41 41 40 39 38 36 35 34 34 34 35 36 37 38 40 42 44 45 49 52 54 56 60 58 51 47 45 45 45
24 24 24 25 26 27 27 28 29 30 32 34 35 36 37 36 37 37 38 39 39 37 36 35 36 36 36 37 38 38 39 40 41 42 42 43 44 46 51 55 57 54 50 48 48 48 48 47 46 45 45 44 44 44 45 45 45 45 43 43 42 42 40 39 38 37 36 35 34 35 36 37 38 40 43 45 46 50 54 56 60 63 59 53 49 47 47 47
Wind_Direction
258 260 262 263 264 265 266 266 266 265 262 259 258 256 255 254 253 252 251 250 249 248 248 248 248 248 249 250 250 251 252 252 253 254 254 255 255 256 256 257 258 258 259 260 260 261 261 262 262 263 263 264 264 265 265 265 266 266 266 266 265 265 265 265 266 266 266 266 266 266 266 266 266 266 265 265 265 266 265 265 265 266 265 266 266 266 267 267
258 260 261 262 263 264 265 266 266 265 264 261 259 258 256 255 254 253 252 251 250 250 249 249 249 249 249 250 250 251 252 252 253 254 255 255 256 256 257 257 258 259 259 260 261 262 262 263 263 264 264 265 265 266 266 266 266 266 266 266 266 266 266 267 267 267 267 267 267 267 267 266 266 266 266 266 266 267 267 267 266 266 266 266 266 267 266 266
257 259 260 261 262 263 264 264 265 265 264 263 261 260 259 258 256 255 253 252 252 251 250 250 250 250 250 250 251 251 252 253 253 254 255 256 256 257 257 258 259 259 259 260 261 262 263 263 264 264 265 265 266 266 266 267 267 267 267 266 266 266 267 267 267 267 267 267 268 268 268 268 267 267 267 267 267 267 267 267 267 267 267 267 267 267 266 264
256 258 259 260 261 262 262 263 264 265 265 264 263 262 261 260 259 258 256 254 253 252 251 251 251 251 251 251 251 252 252 253 254 254 255 256 256 257 258 258 259 260 260 261 261 262 263 263 264 264 265 265 266 266 267 267 267 267 267 267 267 267 267 267 268 268 268 268 269 269 269 268 268 268 268 268 268 268 268 268 268 268 268 268 268 267 266 265
255 256 258 259 259 260 261 262 264 265 265 265 264 263 262 262 261 260 259 257 255 253 252 251 251 251 251 251 252 252 252 253 254 254 255 256 257 257 258 259 259 260 260 261 261 262 263 263 264 264 265 265 266 266 267 267 267 267 267 267 268 268 268 268 268 269 269 269 269 269 268 268 268 268 268 268 268 269 269 269 269 270 270 269 268 267 267 266
254 255 256 257 258 259 260 261 263 264 265 265 265 264 263 263 262 261 260 259 257 255 253 252 252 251 251 252 252 252 253 253 254 254 255 256 257 257 258 258 259 260 260 261 261 262 262 263 263 264 264 265 265 266 266 266 267 267 267 267 268 268 268 268 269 269 269 268 268 268 268 268 268 269 269 269 269 269 270 270 270 270 270 269 269 268 268 267
252 253 254 255 256 257 259 260 262 264 265 265 265 265 264 263 263 262 261 259 257 256 254 253 252 252 252 252 252 252 253 253 254 255 255 256 257 257 258 258 259 259 260 260 261 261 262 262 263 264 264 264 265 265 265 266 266 266 267 267 268 268 268 268 269 268 268 267 268 268 268 268 269 269 269 269 269 269 270 270 270 270 269 269 268 268 267 266
250 251 252 253 254 256 258 260 261 263 264 265 265 265 265 265 264 262 261 259 257 255 254 253 253 252 252 252 252 252 253 253 254 255 255 256 257 257 258 258 258 259 259 260 260 261 261 262 263 263 264 264 264 264 265 265 266 266 267 267 268 268 268 268 268 268 268 268 268 268 268 268 269 269 269 269 269 269 269 269 269 268 268 268 268 267 266 264
249 250 251 252 253 255 257 259 261 262 263 264 265 266 267 267 265 263 260 258 256 254 253 253 253 252 252 253 253 253 253 253 254 254 255 256 256 257 258 258 259 259 259 260 260 261 261 262 263 263 263 263 264 264 265 265 265 266 266 267 267 268 268 269 269 268 268 268 268 268 268 269 269 269 269 269 269 269 269 268 268 267 267 267 267 266 264 262
248 249 250 251 252 254 256 258 259 261 262 263 265 267 268 268 266 262 259 256 255 254 253 253 252 252 252 252 253 253 253 253 253 254 255 255 256 256 257 258 259 259 259 260 260 261 261 262 262 263 263 264 264 264 265 265 265 266 266 267 267 268 269 269 269 269 269 269 269 269 269 269 269 269 269 269 268 268 268 267 267 266 266 266 265 264 263 261
247 248 249 250 251 253 255 256 258 260 261 263 265 267 269 268 265 261 258 256 254 254 253 253 252 252 252 252 252 253 253 253 253 254 254 255 256 256 257 257 258 258 259 259 260 261 261 262 262 263 263 264 264 264 265 265 266 266 267 267 268 268 269 269 270 270 270 270 269 269 270 270 269 269 269 268 268 267 267 266 265 265 265 264 264 263 261 260
246 247 249 250 251 252 254 255 257 258 260 262 265 267 269 267 263 261 259 257 256 255 255 254 253 252 252 252 252 252 252 253 253 254 254 255 255 256 256 257 257 258 259 260 261 261 262 262 263 263 264 264 264 265 265 265 266 266 267 268 268 268 269 269 270 270 270 270 270 270 270 270 269 268 268 268 267 266 265 264 264 263 263 263 262 261 260 260
245 246 248 249 250 251 253 254 256 257 259 261 264 267 269 267 263 261 259 258 258 257 256 255 254 253 253 252 252 253 253 253 253 254 254 255 255 256 257 258 259 259 260 261 261 262 262 263 263 264 264 264 265 265 265 265 265 266 266 267 267 267 268 269 269 270 270 270 270 270 270 270 268 267 267 266 265 264 264 263 263 263 262 261 261 260 259 259
245 246 247 249 250 251 252 254 255 256 257 259 263 265 267 266 263 261 260 259 258 258 258 257 255 254 254 253 253 254 254 254 254 254 255 255 256 257 258 259 260 261 261 261 262 262 263 263 263 263 264 264 264 264 264 265 265 265 266 266 267 267 267 268 269 269 269 269 269 269 269 268 267 266 264 263 262 262 262 262 262 261 261 260 260 259 259 258
244 246 247 249 250 251 252 254 255 256 256 257 261 262 264 264 262 262 262 260 260 259 258 258 257 255 255 254 253 254 255 254 254 255 255 256 257 258 259 260 260 261 261 262 262 263 263 263 263 263 263 263 263 263 263 264 264 264 265 265 265 266 266 267 267 267 267 267 267 267 266 266 266 264 262 260 259 260 260 260 260 259 259 259 258 258 258 258
243 245 247 248 250 251 252 254 255 255 254 255 258 260 261 261 260 261 262 261 261 260 260 259 258 257 257 256 254 254 255 256 255 255 256 257 257 258 259 259 260 260 261 261 261 262 262 262 263 263 263 263 263 263 263 263 263 263 263 263 264 265 266 266 265 265 266 266 265 264 264 263 264 263 261 259 258 258 259 259 258 258 257 257 256 257 257 256
243 245 246 248 250 251 252 254 255 255 254 254 256 258 258 259 259 259 259 260 260 260 260 260 259 258 258 257 255 255 256 258 258 257 257 258 259 259 259 259 260 261 261 261 261 262 262 263 263 264 264 265 264 264 263 263 262 262 263 263 264 264 264 264 264 264 264 264 264 263 261 261 262 262 262 261 260 258 258 258 258 258 257 257 256 255 255 255
244 245 246 248 250 251 252 253 255 255 254 253 254 256 257 258 258 257 257 258 259 259 259 260 260 260 260 259 259 258 259 260 261 262 261 261 261 261 262 262 262 262 262 262 262 262 263 264 264 265 265 265 264 264 264 263 262 262 263 263 263 263 263 263 263 262 262 262 262 261 260 259 260 261 262 262 261 259 258 258 258 258 258 257 257 255 255 254
244 245 246 248 250 251 252 253 254 255 254 253 254 255 256 256 257 257 256 257 257 258 259 260 261 261 261 262 262 263 263 263 264 265 265 265 264 264 264 264 264 264 263 263 263 263 264 265 266 266 265 264 264 264 264 264 263 263 263 263 263 263 263 263 262 261 260 260 261 260 259 259 260 260 260 260 260 260 259 258 258 258 258 258 257 256 254 254
243 244 246 248 249 250 251 252 253 254 254 254 254 255 255 255 256 256 256 256 256 257 258 260 261 262 262 263 265 265 265 266 266 266 266 266 266 266 266 266 266 266 265 265 266 266 267 267 267 266 264 264 263 263 264 264 264 264 263 263 263 263 263 262 261 260 258 259 260 260 259 259 259 259 258 258 259 260 259 258 258 258 259 258 257 256 255 254
244 245 246 247 248 249 250 251 252 253 253 253 254 254 254 254 255 256 256 255 255 256 258 260 261 262 263 264 265 266 267 267 266 266 267 267 268 268 268 268 268 268 268 269 269 269 268 268 266 265 264 264 264 264 264 264 264 264 264 263 263 263 262 261 259 259 258 258 259 259 258 259 259 258 258 258 257 258 259 259 259 259 259 259 258 256 255 255
245 246 247 248 248 249 249 250 251 251 252 253 254 254 255 254 254 255 255 255 255 256 258 259 260 262 264 265 265 265 266 266 265 266 267 268 268 268 268 269 269 270 270 270 270 269 268 267 266 266 266 266 265 265 264 264 263 263 262 262 262 261 261 260 259 258 257 257 258 258 257 258 259 258 258 257 256 257 259 260 260 260 260 259 257 255 254 254
247 248 249 249 250 249 249 249 250 250 250 252 253 254 255 255 255 255 255 255 255 255 257 259 260 262 263 264 264 264 265 266 267 267 267 268 268 269 270 270 271 272 272 270 269 268 268 267 266 267 267 266 265 264 263 263 262 262 261 260 260 260 259 260 260 258 257 257 258 258 257 258 259 259 258 256 255 256 258 260 260 260 259 258 256 254 253 252
248 249 249 250 251 251 250 250 250 250 249 250 252 253 254 255 255 255 255 255 255 253 255 258 261 263 263 263 264 265 265 266 267 267 268 270 270 271 271 272 273 273 272 271 270 269 268 267 266 266 265 264 264 262 261 261 261 261 260 259 258 259 259 259 260 259 258 257 258 259 258 258 260 259 258 257 255 256 257 258 259 258 257 256 255 253 251 250
247 248 249 250 250 251 251 251 251 251 250 251 251 252 253 253 255 255 255 255 255 254 255 258 261 264 264 264 265 265 265 266 267 269 270 271 271 271 272 273 274 274 273 272 271 270 268 267 266 264 263 263 262 261 260 259 259 259 258 258 258 259 260 260 260 260 259 258 258 260 259 259 260 259 259 257 255 255 255 255 256 256 255 254 253 251 249 249
245 246 247 248 249 249 250 251 251 252 253 252 252 252 252 253 253 254 255 256 256 256 257 258 260 263 265 266 266 266 266 266 267 269 269 269 270 271 273 275 275 275 274 272 271 269 266 265 264 263 263 262 261 260 259 257 257 258 257 257 257 259 259 259 259 259 259 258 257 258 258 259 260 259 258 256 254 253 253 252 253 253 252 252 250 247 247 247
243 244 245 246 246 248 249 250 250 251 252 251 251 251 251 253 253 254 255 256 257 258 259 260 262 263 265 267 267 267 266 266 267 268 268 269 271 272 274 276 276 275 274 273 270 267 265 264 263 262 261 261 259 258 257 256 257 257 256 255 255 256 257 257 257 257 258 259 257 257 258 258 260 258 256 254 253 251 250 250 249 249 249 248 246 245 245 245
243 243 244 244 245 246 248 249 249 249 249 249 249 249 250 252 254 254 255 256 257 258 259 261 262 263 265 267 267 267 266 266 266 266 267 269 271 274 276 277 277 276 274 271 268 265 263 262 261 260 258 257 256 256 256 256 255 255 254 254 253 253 254 254 255 256 257 259 259 258 256 256 258 257 254 252 251 249 247 246 246 245 246 244 243 243 243 244
244 244 244 244 244 244 245 247 247 247 248 249 249 250 251 252 254 255 256 256 257 258 259 260 262 263 265 266 267 266 265 264 265 266 268 270 273 275 277 278 277 274 271 267 264 262 261 259 258 257 256 255 255 254 255 255 254 253 253 253 252 252 252 253 254 255 256 258 260 258 254 253 256 257 253 248 247 246 244 242 242 242 242 241 240 240 241 242
246 246 245 244 243 243 244 245 246 247 248 250 251 251 251 252 253 254 255 256 257 258 259 260 262 263 265 265 265 263 263 263 265 267 269 272 274 277 279 277 273 270 267 265 263 261 259 257 256 255 254 253 254 254 254 254 253 253 253 252 252 251 252 253 254 255 256 257 258 257 254 252 252 254 252 246 242 243 242 239 239 238 238 238 238 238 239 240
249 248 247 246 245 243 243 244 245 246 248 250 250 251 250 251 252 253 255 256 257 259 260 261 262 263 264 263 263 262 263 264 266 268 270 273 276 278 277 273 269 267 265 263 261 259 259 258 256 254 254 253 253 254 254 254 253 252 251 251 251 251 252 253 254 255 255 255 256 256 254 250 245 247 249 245 240 241 240 237 237 236 235 235 235 236 237 237
250 249 249 248 247 245 244 244 245 246 247 248 249 249 249 250 251 253 255 257 258 259 260 261 261 261 262 262 262 262 263 265 267 270 273 275 277 276 272 269 267 265 262 260 259 259 259 258 256 254 253 252 251 251 251 251 250 249 249 249 250 251 252 253 253 252 252 252 253 254 252 245 238 240 245 244 238 238 238 236 235 234 233 232 232 233 233 233
251 250 249 248 248 247 245 245 245 245 246 247 248 248 249 251 253 255 256 258 259 259 259 260 260 260 261 261 261 262 264 267 269 272 274 276 275 271 268 266 265 262 260 259 259 258 256 254 253 251 249 248 247 247 247 247 247 248 248 247 248 249 249 249 247 246 247 248 250 250 247 240 233 236 242 242 236 235 235 234 233 232 230 228 229 230 230 230
253 251 249 248 247 246 245 244 244 245 246 246 247 248 249 251 253 255 256 257 258 258 258 259 259 259 260 260 261 263 265 268 270 273 274 273 270 266 265 264 263 260 259 258 258 256 253 250 250 249 247 246 246 245 245 245 247 246 245 243 242 242 241 241 241 241 242 244 245 244 238 232 229 234 241 240 235 233 233 232 231 230 227 225 225 226 226 226
254 252 250 248 246 245 244 244 243 244 245 246 246 248 249 251 253 254 256 257 257 257 257 257 257 258 259 260 262 264 266 268 270 271 271 269 266 264 263 262 260 259 257 256 255 253 251 248 248 248 247 245 245 244 243 243 244 243 241 238 236 236 236 237 238 238 239 239 238 236 230 227 227 232 239 238 234 232 231 230 229 227 224 222 222 223 222 220
253 251 248 246 245 245 244 243 243 244 244 245 246 248 249 251 252 254 255 256 256 255 255 256 256 258 260 262 263 265 267 268 269 269 267 265 263 262 261 259 258 258 257 255 254 251 249 246 244 244 245 243 243 243 241 240 239 239 237 235 234 234 234 235 234 234 235 235 233 231 227 226 227 232 236 236 231 230 229 228 226 225 222 219 219 219 217 216
251 249 247 245 245 244 244 243 243 243 244 245 246 248 249 251 252 254 255 255 256 256 256 257 258 260 261 262 264 266 267 267 266 266 264 261 261 260 259 258 257 257 258 257 255 252 249 245 240 239 241 241 240 240 237 235 235 234 233 232 233 232 229 229 229 229 231 232 231 230 227 226 228 232 234 233 228 225 225 225 223 222 220 217 217 215 214 211
248 246 245 244 244 244 244 243 243 244 244 245 247 248 249 251 253 254 254 255 256 257 258 259 260 260 260 261 264 266 265 263 263 263 262 259 258 258 258 257 256 256 257 257 255 251 249 247 242 238 238 239 239 238 236 232 230 230 230 231 230 226 223 223 224 224 226 228 230 231 230 228 229 230 231 230 225 221 221 221 220 219 217 215 212 212 210 205
245 244 244 243 243 243 243 242 243 244 244 246 247 247 249 250 252 253 254 255 257 259 260 260 260 259 260 262 262 262 262 262 261 260 259 257 255 254 255 256 256 256 256 255 254 250 247 246 242 237 236 238 238 238 235 230 228 228 228 228 227 223 221 221 221 222 223 226 229 231 231 230 229 228 228 227 222 219 218 218 217 215 214 211 208 207 204 199
241 242 242 242 241 241 240 240 241 242 243 244 245 246 248 249 251 252 253 255 258 259 260 259 259 260 261 261 259 257 259 262 261 258 257 256 253 253 254 255 256 256 255 253 252 249 246 244 242 238 234 235 236 235 233 228 226 226 225 224 223 221 220 220 220 221 223 225 228 231 232 231 228 226 226 225 221 219 218 216 213 211 209 206 204 202 199 196
236 238 238 238 237 238 239 238 239 241 242 243 244 245 247 249 250 251 253 256 259 259 259 259 260 261 260 259 257 256 258 261 261 258 255 253 252 251 253 254 255 255 255 254 252 249 245 242 242 240 235 234 233 231 229 227 224 223 222 219 219 219 219 219 220 222 223 225 229 231 233 232 228 225 223 222 220 218 217 213 208 205 204 203 202 201 198 195
230 231 231 231 231 234 236 237 238 239 240 241 242 244 246 248 250 252 255 259 259 259 259 261 261 261 259 259 258 258 259 259 259 258 255 251 250 249 251 253 254 254 254 254 251 248 244 241 241 241 237 233 230 227 226 225 223 221 219 217 217 217 217 218 220 222 224 226 230 232 232 231 228 225 222 218 216 216 214 209 204 202 202 201 199 198 195 192
224 224 225 225 225 228 231 232 233 234 236 238 241 244 246 248 251 255 258 260 259 260 261 261 261 260 260 259 260 260 259 257 256 256 254 250 247 247 249 251 252 252 252 251 249 247 244 240 239 240 238 234 228 224 224 225 222 219 217 215 215 215 216 217 220 222 224 227 230 231 231 228 225 224 220 213 209 210 209 204 202 201 198 194 191 190 188 187
220 221 222 223 225 227 229 231 232 234 236 239 242 246 249 251 255 258 260 260 260 260 261 260 260 260 261 262 262 260 258 256 253 251 251 249 247 246 247 248 248 248 247 246 246 244 243 239 236 237 237 234 227 224 223 224 222 218 215 214 214 214 215 217 219 220 223 227 229 230 229 226 222 222 219 211 204 202 201 199 198 195 191 186 184 181 179 178
221 221 222 224 227 230 232 234 235 238 241 244 248 251 254 256 258 258 259 259 260 261 260 260 260 260 261 262 262 259 256 253 251 248 247 247 246 245 244 244 243 243 243 243 242 242 241 240 238 237 237 233 226 223 222 222 222 218 214 214 213 213 215 217 218 219 222 226 227 228 228 224 221 220 217 209 201 196 195 194 192 189 184 181 177 172 170 171
224 225 226 227 229 233 236 238 241 244 247 250 252 255 256 257 258 259 260 260 261 261 262 262 263 264 263 262 260 257 254 251 248 246 245 245 244 243 244 243 241 242 241 239 240 239 238 239 239 239 239 234 225 222 222 222 222 219 215 214 214 214 215 218 219 219 222 224 225 226 226 222 219 217 213 206 197 192 191 190 189 185 179 176 172 168 166 170
225 227 229 231 234 237 240 242 245 247 249 251 253 254 256 258 260 261 262 262 263 264 264 265 265 265 264 262 260 258 255 251 248 245 244 244 243 242 243 242 240 240 240 238 239 239 236 236 236 238 240 236 227 222 221 222 222 219 216 215 215 214 215 217 218 218 221 222 222 224 224 220 216 214 210 203 195 190 188 189 187 182 177 174 172 169 168 173
219 222 225 229 232 235 238 240 242 245 248 251 253 256 258 261 262 263 265 266 267 267 267 266 265 263 262 261 260 258 256 254 251 247 243 242 241 240 241 241 239 240 241 239 239 240 238 235 234 235 238 237 230 224 222 222 221 219 217 215 215 216 216 216 216 217 219 221 221 222 222 219 215 212 208 201 194 190 188 188 186 180 177 176 173 173 174 177
215 218 221 224 228 232 235 239 242 247 251 254 257 260 262 264 266 268 269 270 270 270 269 268 266 265 263 261 260 258 257 255 252 250 246 242 240 238 239 239 238 239 238 234 233 236 236 234 233 233 236 236 233 227 224 223 222 220 218 217 216 217 217 217 216 216 218 220 220 219 220 219 215 210 207 201 195 190 188 188 185 180 179 178 177 179 182 182
216 219 222 225 229 234 238 243 247 251 255 259 263 265 267 269 271 272 273 272 272 271 271 270 269 267 265 263 261 259 257 254 252 249 246 242 239 237 237 237 236 236 235 230 228 229 230 231 231 231 233 235 233 229 226 224 223 222 220 218 218 218 218 218 217 217 218 220 219 219 219 218 215 210 206 202 196 192 189 188 185 182 181 181 181 184 187 186
217 220 224 227 232 237 242 247 252 256 260 264 268 270 272 273 274 274 274 274 273 273 273 271 270 267 265 262 260 258 255 252 249 246 243 240 237 234 234 235 236 236 234 230 227 227 227 228 229 229 230 232 232 231 229 226 224 222 220 219 219 218 219 219 218 218 219 220 220 219 219 218 215 211 207 203 198 194 191 189 186 184 184 184 183 186 189 189
218 222 226 230 235 241 247 253 258 263 266 270 272 273 273 273 274 275 276 276 277 277 276 274 271 268 265 261 259 257 254 251 247 243 240 237 234 231 231 233 235 235 233 229 226 226 226 226 227 227 228 230 230 231 231 229 227 224 222 220 220 219 219 220 220 219 219 220 220 220 219 219 216 212 208 205 200 197 195 192 189 187 187 187 186 187 190 193
Height
10646 10648 10650 10651 10653 10654 10655 10656 10657 10658 10660 10661 10662 10664 10665 10667 10668 10670 10672 10674 10677 10679 10681 10683 10686 10687 10689 10691 10693 10695 10696 10698 10700 10702 10704 10705 10705 10708 10711 10711 10712 10715 10718 10719 10721 10724 10726 10728 10729 10730 10732 10734 10737 10739 10741 10742 10743 10743 10744 10743 10741 10739 10739 10740 10744 10749 10753 10754 10755 10758 10760 10763 10764 10766 10767 10766 10767 10768 10769 10770 10769 10769 10770 10771 10773 10775 10776 10777
10640 10641 10643 10645 10646 10647 10648 10650 10651 10652 10653 10654 10656 10657 10659 10660 10661 10663 10665 10667 10669 10671 10674 10676 10678 10680 10682 10684 10686 10687 10689 10691 10693 10695 10696 10697 10698 10701 10704 10704 10706 10709 10711 10713 10715 10716 10718 10720 10721 10723 10725 10727 10729 10732 10733 10735 10735 10736 10736 10734 10732 10732 10732 10734 10737 10741 10746 10746 10748 10750 10753 10755 10757 10758 10759 10759 10760 10761 10761 10762 10762 10761 10763 10765 10766 10768 10769 10768
10633 10634 10636 10638 10639 10641 10642 10643 10644 10645 10647 10648 10649 10651 10652 10653 10655 10656 10658 10660 10662 10664 10666 10668 10670 10672 10674 10676 10678 10680 10682 10684 10686 10688 10689 10690 10692 10695 10697 10698 10700 10702 10705 10707 10709 10709 10710 10712 10713 10715 10717 10720 10722 10724 10726 10727 10728 10728 10727 10725 10724 10724 10725 10728 10729 10733 10738 10739 10740 10743 10745 10748 10749 10750 10752 10752 10752 10753 10754 10754 10753 10753 10755 10758 10760 10761 10760 10758
10626 10628 10629 10631 10632 10634 10635 10637 10638 10639 10640 10642 10643 10644 10646 10647 10648 10649 10651 10653 10654 10656 10658 10660 10662 10664 10666 10668 10670 10672 10674 10677 10679 10680 10681 10683 10685 10688 10690 10691 10693 10696 10698 10700 10702 10703 10703 10705 10706 10708 10711 10713 10715 10717 10719 10720 10720 10719 10717 10716 10716 10717 10717 10720 10722 10725 10731 10733 10733 10736 10737 10739 10740 10742 10743 10744 10744 10745 10746 10745 10744 10745 10748 10751 10752 10752 10751 10751
10619 10621 10622 10624 10626 10627 10629 10630 10631 10633 10634 10635 10637 10638 10639 10640 10641 10643 10644 10645 10647 10648 10650 10653 10655 10656 10658 10660 10662 10664 10666 10669 10671 10672 10674 10676 10678 10680 10682 10684 10686 10689 10691 10693 10694 10696 10697 10698 10700 10702 10704 10706 10708 10710 10712 10712 10712 10710 10708 10709 10709 10708 10710 10712 10715 10718 10724 10725 10725 10727 10728 10730 10733 10734 10735 10736 10737 10738 10738 10737 10736 10737 10740 10743 10744 10744 10744 10746
10611 10614 10615 10617 10619 10620 10622 10624 10625 10626 10628 10629 10630 10631 10633 10633 10635 10636 10637 10638 10639 10641 10643 10645 10647 10649 10651 10652 10654 10656 10659 10662 10664 10665 10667 10669 10670 10673 10675 10677 10680 10682 10684 10685 10687 10688 10690 10691 10693 10695 10697 10700 10701 10703 10704 10705 10705 10701 10700 10702 10702 10701 10702 10705 10708 10711 10716 10716 10716 10719 10720 10722 10725 10727 10727 10728 10729 10730 10730 10729 10729 10730 10732 10734 10736 10737 10738 10741
10604 10607 10609 10610 10612 10614 10615 10617 10618 10620 10621 10623 10624 10625 10626 10627 10628 10629 10630 10631 10632 10634 10635 10637 10639 10641 10643 10644 10647 10649 10652 10655 10656 10658 10660 10662 10663 10665 10668 10670 10673 10675 10677 10678 10680 10681 10682 10684 10686 10689 10691 10692 10693 10695 10697 10697 10697 10694 10693 10695 10695 10694 10694 10698 10701 10703 10706 10707 10709 10712 10712 10715 10718 10719 10720 10721 10721 10722 10723 10722 10722 10722 10723 10725 10728 10731 10733 10735
10597 10599 10602 10603 10605 10607 10609 10610 10612 10613 10615 10616 10617 10618 10619 10620 10620 10621 10622 10623 10625 10626 10628 10630 10632 10633 10635 10637 10639 10642 10645 10648 10648 10651 10653 10654 10656 10658 10660 10663 10666 10668 10670 10672 10673 10674 10675 10677 10680 10682 10683 10684 10685 10687 10690 10690 10689 10686 10686 10689 10689 10686 10686 10691 10693 10693 10697 10700 10703 10705 10705 10708 10712 10712 10712 10713 10713 10713 10714 10714 10714 10714 10716 10718 10722 10725 10726 10727
10590 10592 10594 10596 10598 10600 10602 10604 10605 10607 10608 10610 10611 10611 10612 10612 10613 10613 10614 10615 10617 10619 10620 10622 10624 10626 10628 10629 10632 10635 10638 10640 10641 10644 10646 10648 10650 10651 10653 10656 10659 10662 10664 10665 10666 10667 10669 10671 10673 10674 10675 10676 10677 10680 10682 10682 10681 10679 10680 10681 10680 10679 10680 10684 10685 10685 10690 10693 10696 10697 10697 10702 10705 10704 10704 10705 10705 10705 10706 10706 10706 10707 10709 10713 10716 10718 10719 10718
10583 10585 10587 10589 10592 10594 10595 10597 10598 10600 10602 10603 10604 10605 10605 10605 10605 10606 10607 10608 10609 10611 10613 10615 10616 10618 10620 10622 10624 10628 10630 10632 10634 10637 10639 10641 10643 10645 10647 10650 10652 10654 10656 10658 10659 10660 10662 10664 10665 10666 10667 10668 10670 10672 10674 10674 10673 10671 10672 10672 10673 10674 10673 10675 10676 10678 10682 10685 10688 10689 10689 10695 10698 10697 10695 10696 10697 10698 10699 10699 10699 10701 10704 10707 10708 10710 10711 10711
10576 10578 10580 10582 10585 10587 10589 10590 10592 10594 10595 10597 10598 10599 10599 10599 10598 10599 10600 10601 10602 10604 10605 10607 10609 10610 10613 10615 10617 10621 10622 10625 10627 10630 10632 10634 10636 10638 10641 10643 10645 10646 10648 10650 10652 10653 10655 10656 10657 10658 10659 10660 10662 10664 10666 10666 10665 10664 10664 10664 10666 10667 10666 10667 10668 10671 10675 10676 10679 10681 10682 10686 10690 10688 10687 10689 10690 10690 10691 10692 10693 10695 10698 10699 10701 10703 10704 10705
10569 10571 10573 10575 10578 10580 10581 10584 10586 10588 10589 10591 10592 10592 10593 10592 10592 10593 10593 10594 10595 10597 10598 10600 10601 10603 10605 10607 10611 10613 10614 10617 10620 10623 10625 10627 10629 10630 10632 10635 10637 10639 10641 10644 10646 10646 10647 10648 10649 10650 10651 10652 10654 10657 10658 10658 10657 10657 10657 10657 10658 10660 10658 10659 10660 10663 10667 10667 10671 10675 10675 10678 10680 10681 10681 10682 10682 10682 10683 10685 10686 10689 10691 10693 10694 10696 10697 10699
10562 10564 10566 10568 10570 10572 10574 10577 10579 10582 10583 10585 10585 10586 10586 10586 10586 10587 10587 10588 10589 10590 10591 10593 10595 10597 10598 10601 10605 10606 10607 10610 10613 10616 10618 10619 10620 10623 10625 10628 10630 10632 10634 10637 10638 10638 10640 10640 10641 10642 10642 10644 10646 10649 10649 10649 10650 10650 10650 10650 10650 10652 10651 10653 10654 10656 10658 10659 10663 10668 10669 10669 10670 10673 10675 10674 10675 10675 10676 10678 10681 10684 10685 10687 10688 10689 10691 10694
10555 10557 10559 10561 10563 10565 10567 10570 10573 10576 10578 10579 10579 10580 10580 10580 10580 10581 10582 10582 10583 10584 10585 10587 10588 10591 10591 10595 10600 10600 10600 10603 10605 10608 10610 10611 10613 10616 10619 10621 10623 10624 10627 10629 10630 10630 10631 10631 10632 10633 10634 10636 10638 10639 10641 10641 10642 10643 10643 10642 10643 10643 10645 10647 10647 10648 10650 10652 10657 10661 10662 10660 10659 10665 10668 10667 10669 10670 10670 10673 10675 10678 10679 10680 10681 10682 10685 10687
10548 10550 10552 10554 10556 10558 10561 10564 10567 10570 10572 10573 10574 10574 10574 10574 10575 10576 10576 10577 10578 10578 10580 10581 10582 10585 10585 10589 10594 10593 10593 10596 10598 10601 10602 10604 10607 10610 10613 10614 10615 10616 10619 10621 10622 10622 10622 10622 10623 10624 10626 10628 10629 10631 10632 10633 10634 10635 10635 10635 10636 10636 10638 10641 10641 10641 10643 10645 10650 10654 10656 10653 10650 10656 10660 10660 10664 10665 10665 10667 10669 10672 10673 10673 10673 10675 10678 10680
10540 10543 10545 10547 10549 10551 10554 10557 10561 10564 10567 10568 10567 10567 10567 10569 10570 10571 10572 10572 10573 10573 10575 10576 10577 10579 10580 10583 10587 10587 10587 10589 10591 10594 10596 10597 10600 10603 10605 10605 10606 10608 10611 10613 10613 10613 10613 10614 10615 10616 10617 10619 10620 10622 10624 10625 10626 10627 10627 10628 10630 10631 10632 10634 10634 10635 10636 10639 10643 10647 10650 10647 10642 10647 10652 10654 10658 10660 10660 10660 10662 10665 10666 10666 10667 10670 10672 10673
10533 10536 10538 10540 10542 10544 10547 10551 10555 10559 10561 10561 10561 10560 10562 10563 10565 10566 10567 10568 10568 10569 10570 10571 10572 10574 10574 10577 10580 10581 10582 10583 10584 10587 10590 10591 10593 10595 10597 10597 10599 10601 10603 10604 10605 10605 10605 10606 10607 10608 10610 10610 10611 10614 10615 10616 10617 10619 10620 10622 10623 10624 10625 10625 10627 10630 10631 10632 10637 10640 10642 10641 10637 10639 10645 10648 10653 10655 10654 10654 10656 10658 10659 10659 10661 10664 10665 10665
10526 10529 10531 10533 10535 10538 10541 10545 10549 10552 10555 10555 10554 10554 10556 10558 10559 10561 10562 10563 10563 10564 10565 10565 10567 10568 10569 10571 10574 10577 10579 10579 10579 10581 10583 10586 10587 10588 10589 10590 10592 10593 10595 10596 10596 10597 10599 10599 10600 10602 10602 10601 10602 10605 10606 10607 10609 10612 10614 10615 10616 10617 10618 10618 10619 10623 10625 10626 10630 10633 10635 10636 10633 10634 10640 10642 10645 10648 10648 10648 10649 10650 10651 10652 10655 10658 10658 10658
10518 10521 10524 10526 10528 10531 10535 10538 10542 10546 10548 10548 10547 10548 10550 10552 10554 10555 10556 10557 10558 10560 10560 10560 10562 10563 10564 10566 10570 10573 10574 10574 10575 10575 10576 10579 10580 10581 10582 10583 10584 10585 10587 10588 10588 10590 10592 10593 10593 10593 10591 10591 10595 10597 10598 10599 10602 10605 10607 10608 10610 10610 10610 10610 10613 10616 10618 10621 10623 10625 10628 10630 10629 10629 10634 10636 10638 10640 10640 10641 10641 10643 10644 10645 10648 10651 10651 10651
10510 10514 10517 10519 10522 10525 10528 10532 10536 10539 10541 10541 10540 10542 10545 10547 10549 10550 10550 10550 10552 10555 10555 10556 10558 10558 10559 10563 10566 10567 10568 10569 10569 10569 10570 10572 10573 10574 10575 10576 10576 10577 10579 10580 10582 10584 10585 10586 10585 10582 10580 10583 10587 10589 10590 10592 10595 10598 10600 10601 10603 10603 10601 10602 10606 10607 10611 10616 10617 10618 10623 10624 10623 10623 10628 10631 10633 10632 10631 10633 10634 10636 10638 10639 10642 10644 10645 10643
10503 10507 10509 10512 10515 10518 10521 10525 10529 10532 10534 10534 10534 10536 10539 10541 10543 10543 10542 10543 10546 10549 10551 10552 10552 10551 10554 10560 10561 10561 10563 10563 10562 10562 10564 10565 10567 10567 10567 10568 10569 10570 10572 10574 10576 10577 10577 10578 10574 10569 10572 10576 10579 10581 10583 10584 10587 10590 10592 10594 10594 10593 10592 10594 10598 10600 10605 10611 10610 10612 10617 10618 10616 10618 10622 10626 10628 10625 10623 10624 10628 10630 10631 10632 10635 10637 10638 10637
10496 10500 10503 10505 10508 10511 10514 10518 10522 10525 10527 10527 10528 10530 10533 10536 10537 10536 10535 10536 10540 10545 10546 10547 10545 10545 10551 10554 10555 10556 10557 10555 10554 10556 10558 10559 10560 10560 10560 10562 10562 10563 10565 10567 10568 10567 10568 10568 10562 10561 10565 10569 10571 10574 10575 10576 10578 10581 10583 10585 10585 10583 10583 10586 10590 10593 10599 10604 10604 10605 10611 10611 10609 10612 10617 10620 10621 10619 10616 10618 10621 10623 10624 10626 10628 10630 10632 10631
10489 10493 10496 10498 10501 10504 10506 10510 10514 10517 10520 10521 10522 10524 10526 10529 10529 10529 10528 10528 10534 10540 10540 10540 10540 10541 10546 10547 10547 10550 10551 10548 10547 10549 10551 10551 10552 10554 10555 10554 10555 10557 10558 10558 10558 10558 10559 10557 10553 10555 10558 10560 10563 10565 10566 10568 10570 10572 10574 10576 10574 10573 10576 10580 10582 10587 10593 10597 10597 10599 10606 10604 10601 10606 10610 10613 10615 10613 10611 10613 10614 10615 10617 10618 10620 10623 10625 10624
10481 10485 10488 10490 10494 10496 10499 10502 10506 10510 10512 10514 10516 10518 10520 10522 10521 10522 10523 10521 10527 10535 10535 10534 10534 10535 10538 10540 10541 10543 10544 10541 10538 10540 10544 10545 10545 10547 10547 10547 10548 10549 10548 10548 10549 10550 10549 10547 10546 10548 10549 10551 10554 10555 10557 10559 10561 10563 10565 10566 10565 10565 10569 10574 10576 10581 10586 10590 10590 10593 10600 10597 10594 10599 10603 10605 10607 10605 10605 10606 10606 10607 10609 10610 10613 10617 10618 10617
10474 10477 10480 10483 10486 10489 10491 10495 10499 10502 10505 10507 10509 10512 10513 10515 10514 10515 10517 10516 10520 10528 10530 10529 10529 10527 10530 10533 10535 10535 10537 10535 10531 10533 10538 10537 10537 10539 10539 10540 10541 10539 10538 10539 10540 10541 10540 10537 10538 10539 10540 10543 10545 10546 10548 10550 10552 10555 10555 10556 10558 10560 10563 10567 10571 10575 10578 10581 10584 10587 10592 10588 10586 10591 10594 10597 10598 10597 10598 10599 10598 10600 10602 10604 10608 10610 10611 10611
10466 10470 10472 10476 10479 10481 10483 10487 10491 10495 10498 10500 10502 10505 10506 10507 10507 10509 10510 10509 10513 10520 10523 10524 10524 10522 10523 10525 10527 10528 10529 10528 10525 10527 10531 10528 10528 10531 10531 10533 10532 10529 10529 10530 10532 10532 10529 10528 10529 10531 10533 10535 10537 10538 10538 10541 10545 10546 10546 10550 10553 10554 10556 10560 10564 10568 10569 10572 10577 10580 10582 10580 10578 10583 10586 10588 10590 10590 10590 10591 10592 10594 10596 10599 10602 10603 10605 10606
10459 10462 10465 10469 10471 10473 10475 10479 10484 10488 10490 10492 10495 10498 10499 10500 10500 10502 10504 10503 10506 10512 10515 10516 10517 10518 10518 10518 10519 10520 10521 10521 10519 10520 10522 10521 10520 10522 10524 10524 10522 10520 10521 10522 10523 10522 10519 10520 10522 10524 10526 10527 10528 10528 10529 10533 10537 10537 10538 10543 10546 10547 10549 10552 10556 10560 10561 10565 10569 10571 10573 10573 10572 10575 10579 10581 10581 10582 10583 10584 10586 10588 10590 10593 10595 10598 10600 10601
10450 10454 10458 10461 10463 10465 10468 10471 10476 10480 10482 10484 10488 10490 10491 10492 10494 10496 10497 10498 10500 10504 10507 10508 10509 10511 10513 10512 10511 10512 10513 10513 10513 10513 10515 10515 10513 10514 10515 10514 10512 10512 10514 10515 10513 10511 10511 10513 10515 10517 10518 10518 10518 10519 10522 10526 10528 10528 10532 10536 10538 10540 10542 10546 10549 10553 10556 10559 10561 10562 10565 10567 10566 10568 10571 10574 10574 10574 10576 10578 10580 10582 10584 10587 10590 10593 10595 10596
10442 10447 10451 10452 10454 10458 10461 10464 10469 10472 10473 10476 10480 10483 10484 10485 10487 10490 10491 10492 10495 10497 10499 10501 10502 10504 10506 10505 10504 10505 10505 10506 10506 10506 10507 10508 10506 10506 10506 10505 10504 10505 10506 10506 10504 10503 10504 10505 10507 10509 10510 10510 10510 10512 10516 10518 10519 10522 10526 10528 10531 10534 10536 10540 10544 10547 10551 10554 10552 10552 10557 10562 10562 10562 10563 10566 10567 10567 10570 10572 10574 10577 10580 10583 10586 10588 10590 10592
10435 10440 10443 10444 10446 10450 10453 10456 10460 10463 10465 10468 10472 10475 10477 10479 10481 10483 10484 10486 10488 10490 10492 10493 10494 10497 10498 10497 10497 10497 10498 10499 10499 10500 10500 10501 10499 10498 10498 10497 10497 10498 10498 10498 10496 10496 10497 10498 10500 10502 10502 10502 10503 10507 10509 10511 10513 10517 10520 10522 10524 10528 10531 10535 10539 10542 10546 10547 10543 10544 10551 10557 10558 10557 10555 10558 10561 10561 10564 10567 10569 10572 10575 10578 10581 10583 10585 10588
10429 10433 10434 10436 10439 10442 10445 10449 10451 10454 10457 10461 10464 10468 10470 10472 10475 10476 10477 10479 10482 10484 10485 10485 10487 10489 10489 10489 10490 10490 10491 10492 10493 10493 10493 10494 10493 10490 10489 10489 10490 10490 10491 10491 10488 10488 10491 10492 10494 10495 10495 10496 10498 10501 10503 10505 10508 10511 10513 10516 10519 10523 10527 10530 10534 10537 10540 10539 10535 10539 10547 10552 10554 10551 10547 10551 10556 10556 10559 10562 10565 10567 10570 10573 10576 10578 10580 10584
10423 10425 10426 10428 10430 10434 10438 10440 10443 10446 10449 10453 10457 10460 10463 10466 10468 10469 10470 10472 10475 10477 10477 10477 10479 10481 10482 10482 10483 10484 10484 10485 10486 10486 10486 10487 10485 10483 10481 10482 10483 10484 10485 10484 10481 10482 10486 10486 10487 10489 10489 10491 10493 10495 10497 10499 10501 10503 10507 10511 10515 10519 10523 10525 10528 10531 10532 10531 10531 10536 10542 10546 10548 10545 10542 10546 10550 10552 10554 10557 10560 10562 10565 10568 10570 10572 10575 10578
10415 10417 10418 10420 10422 10425 10429 10432 10434 10438 10442 10446 10450 10453 10457 10459 10461 10462 10464 10466 10467 10469 10469 10469 10472 10474 10475 10475 10476 10477 10478 10478 10479 10479 10479 10479 10478 10476 10475 10476 10477 10478 10478 10477 10475 10478 10480 10480 10480 10482 10483 10484 10487 10489 10490 10492 10495 10499 10503 10508 10512 10515 10517 10519 10522 10524 10525 10525 10527 10532 10537 10540 10542 10539 10537 10540 10544 10547 10549 10552 10554 10557 10560 10563 10565 10567 10570 10573
10407 10409 10410 10412 10414 10417 10420 10424 10427 10430 10435 10439 10443 10447 10450 10452 10454 10456 10458 10459 10459 10460 10461 10462 10465 10467 10468 10468 10469 10470 10471 10472 10472 10471 10471 10471 10470 10470 10469 10470 10471 10472 10472 10471 10471 10472 10473 10474 10475 10476 10477 10479 10481 10483 10485 10488 10492 10496 10499 10504 10507 10509 10510 10512 10515 10518 10519 10520 10523 10527 10531 10534 10535 10533 10531 10534 10539 10542 10544 10547 10549 10551 10554 10557 10559 10562 10565 10569
10399 10401 10403 10404 10406 10409 10412 10417 10420 10424 10428 10432 10436 10440 10443 10446 10448 10450 10451 10451 10451 10452 10454 10456 10459 10461 10461 10461 10462 10463 10465 10465 10464 10464 10464 10464 10464 10463 10464 10464 10465 10465 10466 10465 10465 10466 10468 10469 10470 10471 10472 10474 10476 10478 10481 10485 10488 10491 10495 10499 10501 10501 10504 10508 10511 10513 10514 10516 10519 10522 10525 10527 10527 10526 10526 10530 10535 10537 10540 10542 10544 10546 10549 10552 10554 10557 10560 10564
10392 10394 10395 10397 10399 10402 10406 10410 10414 10418 10422 10426 10430 10433 10436 10439 10442 10443 10443 10444 10444 10445 10447 10449 10452 10454 10454 10454 10454 10455 10458 10458 10457 10457 10458 10458 10457 10457 10457 10458 10459 10460 10460 10460 10460 10462 10463 10464 10466 10467 10467 10469 10472 10474 10478 10481 10484 10487 10491 10493 10494 10497 10502 10505 10507 10508 10510 10512 10514 10516 10519 10520 10521 10521 10522 10525 10530 10533 10535 10537 10539 10541 10544 10547 10550 10552 10556 10559
10385 10387 10389 10391 10393 10396 10400 10404 10408 10412 10416 10420 10424 10427 10430 10433 10435 10436 10436 10436 10437 10438 10441 10443 10445 10447 10447 10447 10447 10448 10449 10451 10450 10450 10452 10452 10451 10451 10451 10452 10454 10455 10455 10456 10457 10458 10458 10459 10461 10462 10463 10465 10468 10470 10473 10477 10480 10483 10486 10487 10490 10495 10498 10500 10502 10504 10505 10507 10509 10511 10513 10515 10516 10517 10518 10521 10525 10527 10530 10532 10534 10537 10540 10542 10545 10548 10551 10555
10378 10381 10383 10386 10389 10392 10395 10399 10403 10407 10410 10414 10418 10421 10424 10426 10428 10429 10429 10430 10430 10432 10434 10436 10438 10440 10440 10441 10441 10441 10441 10443 10444 10444 10445 10446 10446 10445 10445 10447 10449 10450 10451 10451 10453 10454 10454 10454 10457 10458 10459 10461 10464 10466 10469 10473 10476 10478 10481 10483 10487 10491 10493 10494 10497 10499 10501 10503 10505 10507 10509 10511 10512 10513 10514 10517 10519 10522 10524 10527 10530 10532 10535 10538 10541 10544 10548 10551
10373 10375 10378 10381 10384 10387 10390 10394 10398 10401 10405 10408 10412 10415 10417 10420 10421 10421 10422 10424 10425 10426 10427 10429 10431 10432 10433 10434 10435 10434 10434 10435 10438 10438 10438 10439 10440 10439 10439 10442 10444 10445 10446 10447 10448 10449 10449 10450 10452 10454 10456 10457 10460 10462 10465 10469 10472 10474 10477 10480 10484 10486 10488 10490 10492 10494 10496 10499 10501 10502 10504 10506 10508 10509 10510 10512 10515 10517 10519 10522 10525 10528 10532 10535 10538 10541 10544 10547
10368 10371 10374 10377 10381 10383 10386 10390 10393 10396 10400 10403 10406 10409 10411 10413 10414 10415 10416 10418 10418 10420 10421 10422 10424 10425 10425 10427 10428 10429 10428 10428 10430 10431 10432 10433 10434 10435 10435 10437 10439 10440 10441 10442 10444 10445 10445 10445 10446 10449 10451 10453 10455 10458 10461 10465 10468 10470 10473 10477 10479 10481 10484 10486 10488 10490 10492 10494 10496 10498 10500 10502 10504 10505 10507 10509 10511 10513 10516 10519 10522 10525 10528 10531 10534 10537 10540 10544
10365 10368 10371 10374 10377 10379 10382 10385 10389 10392 10395 10398 10401 10403 10405 10406 10408 10409 10411 10412 10413 10414 10414 10415 10417 10418 10418 10419 10420 10422 10422 10422 10422 10424 10426 10427 10429 10430 10431 10433 10434 10434 10436 10438 10440 10441 10441 10441 10441 10443 10446 10449 10451 10454 10457 10460 10463 10466 10469 10472 10474 10477 10480 10482 10484 10486 10488 10490 10492 10494 10496 10498 10500 10501 10502 10505 10508 10510 10513 10516 10519 10522 10525 10528 10531 10534 10538 10543
10362 10365 10368 10371 10373 10376 10378 10381 10385 10388 10390 10393 10395 10397 10399 10401 10402 10404 10405 10406 10407 10407 10408 10409 10409 10410 10411 10411 10412 10414 10415 10415 10416 10417 10419 10422 10424 10425 10427 10428 10429 10429 10431 10434 10435 10436 10437 10437 10437 10438 10441 10444 10447 10451 10453 10455 10459 10462 10465 10468 10470 10473 10476 10478 10480 10482 10484 10487 10489 10490 10492 10494 10496 10497 10499 10502 10505 10508 10511 10514 10517 10520 10522 10526 10530 10534 10539 10543
10358 10362 10365 10367 10370 10372 10375 10378 10381 10383 10386 10388 10390 10392 10394 10395 10397 10398 10399 10400 10400 10401 10401 10402 10402 10402 10403 10403 10404 10406 10407 10408 10410 10410 10412 10415 10418 10420 10422 10423 10423 10424 10426 10428 10430 10431 10433 10433 10433 10433 10435 10439 10444 10447 10449 10452 10455 10458 10461 10463 10465 10468 10471 10473 10475 10478 10480 10483 10484 10486 10488 10490 10492 10494 10495 10498 10501 10505 10509 10512 10515 10519 10522 10526 10531 10535 10539 10543
10355 10358 10361 10364 10366 10369 10372 10374 10377 10379 10382 10384 10386 10387 10388 10390 10392 10393 10393 10393 10394 10394 10394 10395 10395 10395 10395 10395 10396 10398 10399 10401 10403 10404 10405 10408 10411 10415 10417 10417 10417 10418 10419 10422 10424 10426 10428 10429 10429 10428 10430 10435 10440 10443 10445 10448 10450 10453 10456 10458 10461 10463 10466 10468 10470 10473 10476 10478 10480 10482 10483 10486 10488 10490 10492 10495 10498 10502 10506 10510 10514 10517 10521 10526 10530 10533 10537 10541
10351 10354 10357 10360 10363 10366 10368 10370 10373 10376 10378 10379 10381 10382 10383 10385 10386 10387 10387 10387 10387 10387 10387 10387 10388 10388 10388 10388 10388 10389 10392 10393 10395 10398 10400 10401 10405 10408 10409 10408 10410 10411 10413 10416 10417 10420 10422 10424 10425 10424 10426 10431 10436 10439 10441 10442 10445 10448 10451 10454 10456 10459 10462 10464 10466 10469 10472 10474 10476 10478 10479 10482 10485 10487 10489 10493 10496 10500 10503 10507 10511 10514 10518 10523 10526 10530 10534 10538
10348 10351 10354 10357 10360 10363 10364 10367 10370 10372 10373 10374 10376 10377 10379 10380 10381 10381 10381 10381 10380 10380 10379 10379 10380 10380 10380 10381 10380 10381 10384 10386 10388 10391 10393 10395 10398 10400 10400 10401 10405 10405 10407 10409 10411 10414 10417 10420 10421 10421 10422 10427 10432 10434 10436 10438 10440 10444 10448 10450 10453 10455 10458 10460 10463 10466 10468 10470 10472 10474 10475 10478 10481 10482 10485 10489 10493 10497 10501 10504 10507 10511 10515 10518 10522 10526 10531 10536
10345 10348 10351 10354 10357 10359 10361 10364 10366 10367 10368 10370 10372 10373 10374 10375 10375 10375 10374 10373 10373 10372 10372 10372 10372 10372 10372 10373 10373 10374 10375 10378 10381 10384 10386 10388 10391 10393 10392 10395 10398 10397 10399 10404 10407 10410 10413 10415 10417 10418 10419 10423 10427 10430 10431 10433 10437 10441 10444 10446 10449 10451 10454 10456 10459 10462 10464 10466 10468 10470 10472 10474 10476 10478 10482 10486 10490 10493 10497 10500 10504 10507 10511 10514 10517 10521 10526 10531
10342 10345 10349 10351 10353 10356 10359 10361 10362 10363 10365 10367 10368 10369 10369 10369 10369 10368 10367 10366 10365 10364 10364 10365 10365 10365 10365 10365 10365 10366 10367 10370 10373 10376 10378 10380 10383 10385 10385 10387 10390 10391 10395 10401 10404 10406 10409 10411 10413 10414 10415 10419 10423 10426 10428 10430 10433 10436 10439 10442 10445 10447 10450 10453 10455 10458 10460 10462 10464 10466 10468 10470 10472 10475 10479 10483 10486 10489 10492 10496 10500 10504 10507 10509 10513 10517 10521 10525
10341 10344 10346 10349 10351 10354 10355 10357 10358 10360 10361 10363 10364 10364 10364 10364 10363 10362 10361 10360 10358 10357 10357 10357 10357 10357 10357 10357 10357 10358 10359 10361 10364 10367 10370 10372 10375 10378 10378 10380 10383 10385 10388 10394 10397 10400 10403 10406 10408 10410 10412 10414 10418 10422 10425 10426 10429 10432 10435 10438 10441 10443 10446 10449 10452 10454 10457 10459 10461 10462 10464 10466 10468 10472 10476 10479 10482 10485 10489 10492 10496 10500 10503 10506 10509 10513 10517 10521
10340 10342 10344 10347 10349 10351 10352 10354 10355 10357 10358 10359 10359 10359 10358 10357 10356 10355 10354 10353 10351 10350 10350 10350 10349 10349 10349 10348 10349 10350 10350 10352 10355 10357 10360 10364 10367 10370 10371 10372 10373 10375 10379 10386 10390 10393 10396 10399 10402 10406 10408 10410 10414 10418 10420 10422 10425 10428 10431 10434 10437 10439 10442 10445 10448 10451 10453 10455 10457 10459 10460 10462 10465 10469 10472 10475 10479 10482 10485 10489 10492 10496 10499 10502 10505 10509 10513 10517
10338 10340 10342 10345 10347 10348 10349 10351 10352 10353 10354 10355 10354 10353 10352 10352 10351 10350 10348 10346 10345 10344 10344 10343 10342 10341 10341 10340 10340 10341 10342 10344 10345 10347 10350 10354 10358 10362 10363 10363 10364 10368 10374 10380 10385 10387 10390 10393 10397 10401 10403 10406 10409 10412 10415 10418 10420 10423 10426 10429 10432 10435 10438 10441 10444 10447 10449 10451 10454 10456 10457 10459 10462 10466 10468 10472 10476 10479 10482 10484 10488 10491 10494 10498 10502 10505 10509 10512
10336 10338 10341 10343 10344 10345 10347 10348 10349 10350 10350 10350 10349 10348 10347 10347 10346 10344 10342 10340 10338 10338 10337 10336 10335 10334 10333 10333 10333 10334 10334 10335 10336 10339 10342 10345 10349 10353 10355 10354 10357 10362 10369 10374 10378 10381 10385 10388 10392 10396 10399 10402 10405 10408 10410 10412 10415 10418 10421 10424 10427 10430 10434 10437 10440 10442 10445 10447 10450 10452 10454 10457 10459 10462 10465 10468 10472 10476 10478 10481 10483 10486 10490 10494 10497 10501 10504 10507